Time,TemperatureF,DewpointF,PressureIn,WindDirection,WindDirectionDegrees,WindSpeedMPH,WindSpeedGustMPH,Humidity,HourlyPrecipIn,Conditions,Clouds,dailyrainin,SoftwareType,DateUTC
2013-01-01 00:02:00,14.9,-2.1,23.15,West,268,2.7,4.0,46,0.00,,---,0.00,VWS V14.00,2013-01-01 07:02:00,
2013-01-01 00:07:00,15.1,-2.0,23.15,WNW,287,0.0,0.0,46,0.00,,---,0.00,VWS V14.00,2013-01-01 07:07:00,
2013-01-01 00:12:00,15.1,-2.0,23.15,WNW,287,0.0,0.0,46,0.00,,---,0.00,VWS V14.00,2013-01-01 07:12:00,
2013-01-01 00:17:00,14.9,-2.6,23.15,WNW,287,0.0,0.0,45,0.00,,---,0.00,VWS V14.00,2013-01-01 07:17:00,
2013-01-01 00:22:00,14.4,-3.1,23.15,WNW,289,2.7,3.1,45,0.00,,---,0.00,VWS V14.00,2013-01-01 07:22:00,
2013-01-01 00:27:00,14.0,-3.0,23.15,West,274,3.1,3.1,46,0.00,,---,0.00,VWS V14.00,2013-01-01 07:27:00,
2013-01-01 00:32:00,13.8,-3.1,23.12,West,274,0.0,0.0,46,0.00,,---,0.00,VWS V14.00,2013-01-01 07:32:00,
2013-01-01 00:37:00,13.6,-3.3,23.12,West,274,0.0,0.0,46,0.00,,---,0.00,VWS V14.00,2013-01-01 07:37:00,
2013-01-01 00:43:00,13.3,-3.6,23.12,West,274,0.0,0.0,46,0.00,,---,0.00,VWS V14.00,2013-01-01 07:43:00,
2013-01-01 00:48:00,12.7,-4.1,23.15,West,274,0.0,0.0,46,0.00,,---,0.00,VWS V14.00,2013-01-01 07:48:00,
2013-01-01 00:53:00,12.6,-4.3,23.15,West,274,0.0,0.0,46,0.00,,---,0.00,VWS V14.00,2013-01-01 07:53:00,
2013-01-01 00:58:00,12.0,-4.8,23.15,West,274,0.0,0.0,46,0.00,,---,0.00,VWS V14.00,2013-01-01 07:58:00,
2013-01-01 01:03:00,11.7,-5.1,23.15,West,274,0.0,0.0,46,0.00,,---,0.00,VWS V14.00,2013-01-01 08:03:00,
2013-01-01 01:08:00,11.3,-5.4,23.15,West,274,0.0,0.0,46,0.00,,---,0.00,VWS V14.00,2013-01-01 08:08:00,
2013-01-01 01:13:00,10.9,-5.8,23.15,West,274,0.0,0.0,46,0.00,,---,0.00,VWS V14.00,2013-01-01 08:13:00,
2013-01-01 01:18:00,10.4,-6.3,23.15,West,274,0.0,0.0,46,0.00,,---,0.00,VWS V14.00,2013-01-01 08:18:00,
2013-01-01 01:23:00,10.2,-6.4,23.15,West,274,0.0,0.0,46,0.00,,---,0.00,VWS V14.00,2013-01-01 08:23:00,
2013-01-01 01:28:00,9.7,-6.9,23.15,West,274,0.0,0.0,46,0.00,,---,0.00,VWS V14.00,2013-01-01 08:28:00,
2013-01-01 01:33:00,9.5,-7.1,23.15,West,274,0.0,0.0,46,0.00,,---,0.00,VWS V14.00,2013-01-01 08:33:00,
2013-01-01 01:38:00,9.1,-7.4,23.15,West,274,0.0,0.0,46,0.00,,---,0.00,VWS V14.00,2013-01-01 08:38:00,
2013-01-01 01:43:00,8.8,-7.8,23.15,West,274,0.0,0.0,46,0.00,,---,0.00,VWS V14.00,2013-01-01 08:43:00,
2013-01-01 01:48:00,8.6,-7.9,23.15,West,274,0.0,0.0,46,0.00,,---,0.00,VWS V14.00,2013-01-01 08:48:00,
2013-01-01 01:53:00,8.1,-8.4,23.15,West,274,0.0,0.0,46,0.00,,---,0.00,VWS V14.00,2013-01-01 08:53:00,
2013-01-01 01:58:00,7.9,-8.6,23.15,West,274,0.0,0.0,46,0.00,,---,0.00,VWS V14.00,2013-01-01 08:58:00,
2013-01-01 02:03:00,7.7,-8.8,23.15,West,274,0.0,0.0,46,0.00,,---,0.00,VWS V14.00,2013-01-01 09:03:00,
2013-01-01 02:08:00,7.5,-8.9,23.15,West,274,0.0,0.0,46,0.00,,---,0.00,VWS V14.00,2013-01-01 09:08:00,
2013-01-01 02:13:00,7.2,-9.3,23.15,West,274,0.0,0.0,46,0.00,,---,0.00,VWS V14.00,2013-01-01 09:13:00,
2013-01-01 02:18:00,6.8,-9.6,23.15,West,274,0.0,0.0,46,0.00,,---,0.00,VWS V14.00,2013-01-01 09:18:00,
2013-01-01 02:23:00,6.6,-9.8,23.15,West,274,0.0,0.0,46,0.00,,---,0.00,VWS V14.00,2013-01-01 09:23:00,
2013-01-01 02:28:00,6.4,-9.9,23.15,West,274,0.0,0.0,46,0.00,,---,0.00,VWS V14.00,2013-01-01 09:28:00,
2013-01-01 02:33:00,6.3,-10.1,23.15,West,274,0.0,0.0,46,0.00,,---,0.00,VWS V14.00,2013-01-01 09:33:00,
2013-01-01 02:38:00,6.1,-10.2,23.15,West,274,0.0,0.0,46,0.00,,---,0.00,VWS V14.00,2013-01-01 09:38:00,
2013-01-01 02:44:00,5.9,-10.4,23.15,West,274,0.0,0.0,46,0.00,,---,0.00,VWS V14.00,2013-01-01 09:44:00,
2013-01-01 02:49:00,5.7,-10.6,23.15,West,274,0.0,0.0,46,0.00,,---,0.00,VWS V14.00,2013-01-01 09:49:00,
2013-01-01 02:54:00,5.5,-10.8,23.15,West,274,0.0,0.0,46,0.00,,---,0.00,VWS V14.00,2013-01-01 09:54:00,
2013-01-01 02:59:00,5.4,-10.9,23.15,West,274,0.0,0.0,46,0.00,,---,0.00,VWS V14.00,2013-01-01 09:59:00,
2013-01-01 03:04:00,5.0,-11.2,23.15,West,274,0.0,0.0,46,0.00,,---,0.00,VWS V14.00,2013-01-01 10:04:00,
2013-01-01 03:09:00,4.8,-11.4,23.15,West,274,0.0,0.0,46,0.00,,---,0.00,VWS V14.00,2013-01-01 10:09:00,
2013-01-01 03:14:00,4.5,-11.7,23.15,West,274,0.0,0.0,46,0.00,,---,0.00,VWS V14.00,2013-01-01 10:14:00,
2013-01-01 03:19:00,4.5,-11.7,23.15,West,274,0.0,0.0,46,0.00,,---,0.00,VWS V14.00,2013-01-01 10:19:00,
2013-01-01 03:24:00,4.3,-11.9,23.15,West,274,0.0,0.0,46,0.00,,---,0.00,VWS V14.00,2013-01-01 10:24:00,
2013-01-01 03:29:00,4.1,-12.1,23.15,West,274,0.0,0.0,46,0.00,,---,0.00,VWS V14.00,2013-01-01 10:29:00,
2013-01-01 03:35:00,3.9,-12.2,23.15,West,274,0.0,0.0,46,0.00,,---,0.00,VWS V14.00,2013-01-01 10:35:00,
2013-01-01 03:40:00,3.7,-12.4,23.15,West,274,0.0,0.0,46,0.00,,---,0.00,VWS V14.00,2013-01-01 10:40:00,
2013-01-01 03:45:00,3.6,-12.6,23.15,West,274,0.0,0.0,46,0.00,,---,0.00,VWS V14.00,2013-01-01 10:45:00,
2013-01-01 03:50:00,3.4,-12.7,23.15,West,274,0.0,0.0,46,0.00,,---,0.00,VWS V14.00,2013-01-01 10:50:00,
2013-01-01 03:55:00,3.2,-12.9,23.15,West,274,0.0,0.0,46,0.00,,---,0.00,VWS V14.00,2013-01-01 10:55:00,
2013-01-01 04:00:00,3.0,-13.1,23.15,West,274,0.0,0.0,46,0.00,,---,0.00,VWS V14.00,2013-01-01 11:00:00,
2013-01-01 04:05:00,2.8,-13.2,23.15,West,274,0.0,0.0,46,0.00,,---,0.00,VWS V14.00,2013-01-01 11:05:00,
2013-01-01 04:10:00,2.8,-13.2,23.15,West,274,0.0,0.0,46,0.00,,---,0.00,VWS V14.00,2013-01-01 11:10:00,
2013-01-01 04:15:00,2.7,-13.4,23.15,West,274,0.0,0.0,46,0.00,,---,0.00,VWS V14.00,2013-01-01 11:15:00,
2013-01-01 04:21:00,2.5,-13.6,23.15,West,274,0.0,0.0,46,0.00,,---,0.00,VWS V14.00,2013-01-01 11:21:00,
2013-01-01 04:26:00,2.3,-13.7,23.15,West,274,0.0,0.0,46,0.00,,---,0.00,VWS V14.00,2013-01-01 11:26:00,
2013-01-01 04:31:00,2.1,-13.9,23.15,West,274,0.0,0.0,46,0.00,,---,0.00,VWS V14.00,2013-01-01 11:31:00,
2013-01-01 04:36:00,1.9,-14.1,23.15,West,274,0.0,0.0,46,0.00,,---,0.00,VWS V14.00,2013-01-01 11:36:00,
2013-01-01 04:41:00,1.9,-14.1,23.15,West,274,0.0,0.0,46,0.00,,---,0.00,VWS V14.00,2013-01-01 11:41:00,
2013-01-01 04:46:00,1.6,-14.4,23.15,West,274,0.0,0.0,46,0.00,,---,0.00,VWS V14.00,2013-01-01 11:46:00,
2013-01-01 04:51:00,1.4,-14.6,23.15,West,274,0.0,0.0,46,0.00,,---,0.00,VWS V14.00,2013-01-01 11:51:00,
2013-01-01 04:56:00,1.4,-14.6,23.15,West,274,0.0,0.0,46,0.00,,---,0.00,VWS V14.00,2013-01-01 11:56:00,
2013-01-01 05:01:00,1.2,-14.7,23.15,West,274,0.0,0.0,46,0.00,,---,0.00,VWS V14.00,2013-01-01 12:01:00,
2013-01-01 05:07:00,1.2,-14.7,23.15,West,274,0.0,0.0,46,0.00,,---,0.00,VWS V14.00,2013-01-01 12:07:00,
2013-01-01 05:12:00,0.9,-15.1,23.15,West,274,0.0,0.0,46,0.00,,---,0.00,VWS V14.00,2013-01-01 12:12:00,
2013-01-01 05:17:00,0.7,-15.2,23.15,West,274,0.0,0.0,46,0.00,,---,0.00,VWS V14.00,2013-01-01 12:17:00,
2013-01-01 05:22:00,0.7,-15.2,23.15,West,274,0.0,0.0,46,0.00,,---,0.00,VWS V14.00,2013-01-01 12:22:00,
2013-01-01 05:27:00,0.5,-15.4,23.15,West,274,0.0,0.0,46,0.00,,---,0.00,VWS V14.00,2013-01-01 12:27:00,
2013-01-01 05:32:00,0.1,-15.7,23.15,West,274,0.0,0.0,46,0.00,,---,0.00,VWS V14.00,2013-01-01 12:32:00,
2013-01-01 05:37:00,0.0,-15.9,23.15,West,274,0.0,0.0,46,0.00,,---,0.00,VWS V14.00,2013-01-01 12:37:00,
2013-01-01 05:42:00,0.0,-15.9,23.15,West,274,0.0,0.0,46,0.00,,---,0.00,VWS V14.00,2013-01-01 12:42:00,
2013-01-01 05:47:00,0.0,-15.9,23.15,West,274,0.0,0.0,46,0.00,,---,0.00,VWS V14.00,2013-01-01 12:47:00,
2013-01-01 05:52:00,-0.2,-16.1,23.15,West,274,0.0,0.0,46,0.00,,---,0.00,VWS V14.00,2013-01-01 12:52:00,
2013-01-01 05:57:00,-0.6,-16.4,23.15,West,274,0.0,0.0,46,0.00,,---,0.00,VWS V14.00,2013-01-01 12:57:00,
2013-01-01 06:03:00,-0.6,-16.4,23.15,West,274,0.0,0.0,46,0.00,,---,0.00,VWS V14.00,2013-01-01 13:03:00,
2013-01-01 06:08:00,-0.2,-16.1,23.15,West,274,0.0,0.0,46,0.00,,---,0.00,VWS V14.00,2013-01-01 13:08:00,
2013-01-01 06:13:00,0.0,-15.9,23.15,West,274,0.0,0.0,46,0.00,,---,0.00,VWS V14.00,2013-01-01 13:13:00,
2013-01-01 06:18:00,0.1,-15.7,23.18,West,274,0.0,0.0,46,0.00,,---,0.00,VWS V14.00,2013-01-01 13:18:00,
2013-01-01 06:23:00,0.1,-15.7,23.18,West,274,0.0,0.0,46,0.00,,---,0.00,VWS V14.00,2013-01-01 13:23:00,
2013-01-01 06:28:00,0.1,-15.7,23.18,West,274,0.0,0.0,46,0.00,,---,0.00,VWS V14.00,2013-01-01 13:28:00,
2013-01-01 06:33:00,0.1,-15.7,23.18,West,274,0.0,0.0,46,0.00,,---,0.00,VWS V14.00,2013-01-01 13:33:00,
2013-01-01 06:38:00,0.3,-15.6,23.18,West,274,0.0,0.0,46,0.00,,---,0.00,VWS V14.00,2013-01-01 13:38:00,
2013-01-01 06:43:00,0.1,-15.7,23.18,West,274,0.0,0.0,46,0.00,,---,0.00,VWS V14.00,2013-01-01 13:43:00,
2013-01-01 06:48:00,0.0,-15.9,23.15,West,274,0.0,0.0,46,0.00,,---,0.00,VWS V14.00,2013-01-01 13:48:00,
2013-01-01 06:53:00,0.0,-15.9,23.15,West,274,0.0,0.0,46,0.00,,---,0.00,VWS V14.00,2013-01-01 13:53:00,
2013-01-01 06:59:00,0.3,-15.6,23.18,West,274,0.0,0.0,46,0.00,,---,0.00,VWS V14.00,2013-01-01 13:59:00,
2013-01-01 07:04:00,0.7,-15.2,23.18,West,274,0.0,0.0,46,0.00,,---,0.00,VWS V14.00,2013-01-01 14:04:00,
2013-01-01 07:09:00,0.7,-15.2,23.18,West,274,0.0,0.0,46,0.00,,---,0.00,VWS V14.00,2013-01-01 14:09:00,
2013-01-01 07:14:00,0.9,-15.1,23.18,West,274,0.0,0.0,46,0.00,,---,0.00,VWS V14.00,2013-01-01 14:14:00,
2013-01-01 07:19:00,1.0,-14.9,23.18,West,274,0.0,0.0,46,0.00,,---,0.00,VWS V14.00,2013-01-01 14:19:00,
2013-01-01 07:24:00,1.0,-14.9,23.18,West,274,0.0,0.0,46,0.00,,---,0.00,VWS V14.00,2013-01-01 14:24:00,
2013-01-01 07:29:00,1.0,-14.9,23.18,West,274,0.0,0.0,46,0.00,,---,0.00,VWS V14.00,2013-01-01 14:29:00,
2013-01-01 07:34:00,1.2,-14.7,23.18,West,274,0.0,0.0,46,0.00,,---,0.00,VWS V14.00,2013-01-01 14:34:00,
2013-01-01 07:39:00,1.6,-14.4,23.18,West,274,0.0,0.0,46,0.00,,---,0.00,VWS V14.00,2013-01-01 14:39:00,
2013-01-01 07:44:00,1.8,-14.2,23.18,West,274,0.0,0.0,46,0.00,,---,0.00,VWS V14.00,2013-01-01 14:44:00,
2013-01-01 07:49:00,1.9,-14.1,23.18,West,274,0.0,0.0,46,0.00,,---,0.00,VWS V14.00,2013-01-01 14:49:00,
2013-01-01 07:54:00,1.9,-14.1,23.18,West,274,0.0,0.0,46,0.00,,---,0.00,VWS V14.00,2013-01-01 14:54:00,
2013-01-01 07:59:00,2.1,-13.9,23.18,West,274,0.0,0.0,46,0.00,,---,0.00,VWS V14.00,2013-01-01 14:59:00,
2013-01-01 08:04:00,2.5,-13.6,23.18,West,274,0.0,0.0,46,0.00,,---,0.00,VWS V14.00,2013-01-01 15:04:00,
2013-01-01 08:09:00,2.8,-13.2,23.18,West,274,0.0,0.0,46,0.00,,---,0.00,VWS V14.00,2013-01-01 15:09:00,
2013-01-01 08:15:00,2.8,-13.2,23.18,West,274,0.0,0.0,46,0.00,,---,0.00,VWS V14.00,2013-01-01 15:15:00,
2013-01-01 08:20:00,3.2,-12.9,23.18,West,274,0.0,0.0,46,0.00,,---,0.00,VWS V14.00,2013-01-01 15:20:00,
2013-01-01 08:25:00,3.7,-12.4,23.18,West,274,0.0,0.0,46,0.00,,---,0.00,VWS V14.00,2013-01-01 15:25:00,
2013-01-01 08:30:00,3.9,-12.2,23.21,West,274,0.0,0.0,46,0.00,,---,0.00,VWS V14.00,2013-01-01 15:30:00,
2013-01-01 08:35:00,4.3,-11.9,23.21,West,274,0.0,0.0,46,0.00,,---,0.00,VWS V14.00,2013-01-01 15:35:00,
2013-01-01 08:40:00,4.5,-11.7,23.21,West,274,0.0,0.0,46,0.00,,---,0.00,VWS V14.00,2013-01-01 15:40:00,
2013-01-01 08:45:00,5.0,-11.2,23.21,West,274,0.0,0.0,46,0.00,,---,0.00,VWS V14.00,2013-01-01 15:45:00,
2013-01-01 08:50:00,5.5,-10.8,23.21,West,274,0.0,0.0,46,0.00,,---,0.00,VWS V14.00,2013-01-01 15:50:00,
2013-01-01 08:55:00,6.1,-10.2,23.21,West,274,0.0,0.0,46,0.00,,---,0.00,VWS V14.00,2013-01-01 15:55:00,
2013-01-01 09:00:00,6.4,-9.9,23.21,West,274,0.0,0.0,46,0.00,,---,0.00,VWS V14.00,2013-01-01 16:00:00,
2013-01-01 09:05:00,7.2,-9.3,23.21,West,274,0.0,0.0,46,0.00,,---,0.00,VWS V14.00,2013-01-01 16:05:00,
2013-01-01 09:10:00,8.1,-8.4,23.21,West,274,0.0,0.0,46,0.00,,---,0.00,VWS V14.00,2013-01-01 16:10:00,
2013-01-01 09:15:00,9.1,-7.4,23.21,West,274,0.0,0.0,46,0.00,,---,0.00,VWS V14.00,2013-01-01 16:15:00,
2013-01-01 09:20:00,10.0,-6.6,23.21,West,274,0.0,0.0,46,0.00,,---,0.00,VWS V14.00,2013-01-01 16:20:00,
2013-01-01 09:25:00,11.3,-5.4,23.21,West,274,0.0,0.0,46,0.00,,---,0.00,VWS V14.00,2013-01-01 16:25:00,
2013-01-01 09:30:00,12.9,-4.0,23.21,West,274,0.0,0.0,46,0.00,,---,0.00,VWS V14.00,2013-01-01 16:30:00,
2013-01-01 09:35:00,14.7,-2.3,23.21,West,274,0.0,0.0,46,0.00,,---,0.00,VWS V14.00,2013-01-01 16:35:00,
2013-01-01 09:40:00,16.5,-1.1,23.21,West,274,0.0,0.0,45,0.00,,---,0.00,VWS V14.00,2013-01-01 16:40:00,
2013-01-01 09:45:00,18.1,0.4,23.21,West,274,0.0,0.0,45,0.00,,---,0.00,VWS V14.00,2013-01-01 16:45:00,
2013-01-01 09:50:00,19.6,1.2,23.21,West,274,0.0,0.0,44,0.00,,---,0.00,VWS V14.00,2013-01-01 16:50:00,
2013-01-01 09:56:00,21.2,2.7,23.21,West,274,0.0,0.0,44,0.00,,---,0.00,VWS V14.00,2013-01-01 16:56:00,
2013-01-01 10:01:00,22.8,4.2,23.21,West,274,0.0,0.0,44,0.00,,---,0.00,VWS V14.00,2013-01-01 17:01:00,
2013-01-01 10:06:00,24.1,4.8,23.21,West,274,0.0,0.0,43,0.00,,---,0.00,VWS V14.00,2013-01-01 17:06:00,
2013-01-01 10:11:00,25.2,5.3,23.21,West,274,0.0,0.0,42,0.00,,---,0.00,VWS V14.00,2013-01-01 17:11:00,
2013-01-01 10:16:00,25.9,6.0,23.21,SSE,164,3.6,3.6,42,0.00,,---,0.00,VWS V14.00,2013-01-01 17:16:00,
2013-01-01 10:21:00,26.4,6.4,23.21,SSE,160,0.0,0.0,42,0.00,,---,0.00,VWS V14.00,2013-01-01 17:21:00,
2013-01-01 10:26:00,27.0,6.4,23.21,ESE,107,0.0,0.0,41,0.00,,---,0.00,VWS V14.00,2013-01-01 17:26:00,
2013-01-01 10:31:00,27.9,7.2,23.21,SE,125,0.0,2.2,41,0.00,,---,0.00,VWS V14.00,2013-01-01 17:31:00,
2013-01-01 10:36:00,28.4,7.7,23.21,East,89,2.2,2.2,41,0.00,,---,0.00,VWS V14.00,2013-01-01 17:36:00,
2013-01-01 10:41:00,28.6,7.9,23.21,East,100,3.6,4.0,41,0.00,,---,0.00,VWS V14.00,2013-01-01 17:41:00,
2013-01-01 10:46:00,28.8,8.0,23.21,North,0,3.1,3.1,41,0.00,,---,0.00,VWS V14.00,2013-01-01 17:46:00,
2013-01-01 10:51:00,29.7,8.9,23.21,North,357,0.0,0.0,41,0.00,,---,0.00,VWS V14.00,2013-01-01 17:51:00,
2013-01-01 10:56:00,31.1,10.2,23.21,North,357,0.0,0.0,41,0.00,,---,0.00,VWS V14.00,2013-01-01 17:56:00,
2013-01-01 11:02:00,32.4,11.3,23.21,North,357,0.0,0.0,41,0.00,,---,0.00,VWS V14.00,2013-01-01 18:02:00,
2013-01-01 11:07:00,32.2,11.1,23.21,East,82,0.0,0.0,41,0.00,,---,0.00,VWS V14.00,2013-01-01 18:07:00,
2013-01-01 11:12:00,32.5,11.5,23.21,East,82,0.0,0.0,41,0.00,,---,0.00,VWS V14.00,2013-01-01 18:12:00,
2013-01-01 11:17:00,32.9,11.8,23.21,ESE,111,3.1,3.6,41,0.00,,---,0.00,VWS V14.00,2013-01-01 18:17:00,
2013-01-01 11:22:00,33.1,12.0,23.21,SE,125,0.0,2.2,41,0.00,,---,0.00,VWS V14.00,2013-01-01 18:22:00,
2013-01-01 11:27:00,33.6,12.4,23.21,SE,125,0.0,0.0,41,0.00,,---,0.00,VWS V14.00,2013-01-01 18:27:00,
2013-01-01 11:32:00,35.1,13.2,23.21,NW,314,0.0,3.1,40,0.00,,---,0.00,VWS V14.00,2013-01-01 18:32:00,
2013-01-01 11:37:00,34.9,13.0,23.21,East,89,0.0,0.0,40,0.00,,---,0.00,VWS V14.00,2013-01-01 18:37:00,
2013-01-01 11:42:00,34.3,12.5,23.21,SE,124,2.2,3.1,40,0.00,,---,0.00,VWS V14.00,2013-01-01 18:42:00,
2013-01-01 11:47:00,33.8,12.1,23.21,North,11,3.6,3.6,40,0.00,,---,0.00,VWS V14.00,2013-01-01 18:47:00,
2013-01-01 11:52:00,33.6,12.4,23.21,SE,136,3.1,3.1,41,0.00,,---,0.00,VWS V14.00,2013-01-01 18:52:00,
2013-01-01 11:57:00,34.7,12.9,23.21,SE,136,0.0,0.0,40,0.00,,---,0.00,VWS V14.00,2013-01-01 18:57:00,
2013-01-01 12:02:00,36.5,14.5,23.21,SSW,200,2.7,2.7,40,0.00,,---,0.00,VWS V14.00,2013-01-01 19:02:00,
2013-01-01 12:07:00,37.9,15.2,23.21,ESE,118,3.6,3.6,39,0.00,,---,0.00,VWS V14.00,2013-01-01 19:07:00,
2013-01-01 12:12:00,37.2,15.1,23.21,North,6,2.2,3.6,40,0.00,,---,0.00,VWS V14.00,2013-01-01 19:12:00,
2013-01-01 12:17:00,37.2,15.1,23.18,ESE,113,2.7,3.1,40,0.00,,---,0.00,VWS V14.00,2013-01-01 19:17:00,
2013-01-01 12:22:00,36.9,14.8,23.18,ESE,102,2.7,2.7,40,0.00,,---,0.00,VWS V14.00,2013-01-01 19:22:00,
2013-01-01 12:28:00,36.1,14.2,23.18,South,174,3.6,5.4,40,0.00,,---,0.00,VWS V14.00,2013-01-01 19:28:00,
2013-01-01 12:33:00,36.1,14.2,23.18,East,86,3.6,4.9,40,0.00,,---,0.00,VWS V14.00,2013-01-01 19:33:00,
2013-01-01 12:38:00,35.6,13.7,23.18,East,97,2.7,6.3,40,0.00,,---,0.00,VWS V14.00,2013-01-01 19:38:00,
2013-01-01 12:43:00,35.1,13.2,23.18,ESE,123,4.9,4.9,40,0.00,,---,0.00,VWS V14.00,2013-01-01 19:43:00,
2013-01-01 12:48:00,34.3,12.5,23.18,East,95,5.8,5.8,40,0.00,,---,0.00,VWS V14.00,2013-01-01 19:48:00,
2013-01-01 12:53:00,34.0,12.2,23.18,ESE,108,5.4,5.4,40,0.00,,---,0.00,VWS V14.00,2013-01-01 19:53:00,
2013-01-01 12:58:00,34.0,12.2,23.18,ESE,111,4.9,4.9,40,0.00,,---,0.00,VWS V14.00,2013-01-01 19:58:00,
2013-01-01 13:03:00,33.8,12.1,23.18,East,84,3.1,3.1,40,0.00,,---,0.00,VWS V14.00,2013-01-01 20:03:00,
2013-01-01 13:08:00,33.3,12.1,23.18,ESE,105,8.1,8.1,41,0.00,,---,0.00,VWS V14.00,2013-01-01 20:08:00,
2013-01-01 13:13:00,33.6,12.4,23.18,East,86,5.8,7.6,41,0.00,,---,0.00,VWS V14.00,2013-01-01 20:13:00,
2013-01-01 13:18:00,34.0,12.2,23.18,SSE,156,2.7,4.9,40,0.00,,---,0.00,VWS V14.00,2013-01-01 20:18:00,
2013-01-01 13:23:00,33.8,12.1,23.18,ESE,122,4.0,4.0,40,0.00,,---,0.00,VWS V14.00,2013-01-01 20:23:00,
2013-01-01 13:28:00,33.4,12.3,23.15,SSE,153,5.4,5.4,41,0.00,,---,0.00,VWS V14.00,2013-01-01 20:28:00,
2013-01-01 13:34:00,33.1,12.0,23.15,SE,127,5.4,5.4,41,0.00,,---,0.00,VWS V14.00,2013-01-01 20:34:00,
2013-01-01 13:39:00,33.1,12.0,23.15,East,90,4.0,5.4,41,0.00,,---,0.00,VWS V14.00,2013-01-01 20:39:00,
2013-01-01 13:44:00,32.5,11.5,23.18,NE,44,3.6,4.0,41,0.00,,---,0.00,VWS V14.00,2013-01-01 20:44:00,
2013-01-01 13:49:00,32.0,11.0,23.18,ESE,103,8.1,8.1,41,0.00,,---,0.00,VWS V14.00,2013-01-01 20:49:00,
2013-01-01 13:54:00,31.1,10.2,23.18,SE,145,5.8,7.6,41,0.00,,---,0.00,VWS V14.00,2013-01-01 20:54:00,
2013-01-01 13:59:00,30.6,9.7,23.18,East,91,3.1,3.1,41,0.00,,---,0.00,VWS V14.00,2013-01-01 20:59:00,
2013-01-01 14:04:00,30.2,9.4,23.18,East,88,4.0,8.1,41,0.00,,---,0.00,VWS V14.00,2013-01-01 21:04:00,
2013-01-01 14:09:00,30.2,9.4,23.18,ENE,70,2.2,5.4,41,0.00,,---,0.00,VWS V14.00,2013-01-01 21:09:00,
2013-01-01 14:14:00,30.2,9.4,23.18,NE,35,4.0,4.9,41,0.00,,---,0.00,VWS V14.00,2013-01-01 21:14:00,
2013-01-01 14:19:00,30.2,9.4,23.18,SE,146,3.1,5.4,41,0.00,,---,0.00,VWS V14.00,2013-01-01 21:19:00,
2013-01-01 14:24:00,30.2,9.4,23.18,East,95,3.6,3.6,41,0.00,,---,0.00,VWS V14.00,2013-01-01 21:24:00,
2013-01-01 14:29:00,29.8,9.0,23.18,SSE,153,3.6,4.9,41,0.00,,---,0.00,VWS V14.00,2013-01-01 21:29:00,
2013-01-01 14:34:00,29.7,8.9,23.18,East,97,4.0,4.0,41,0.00,,---,0.00,VWS V14.00,2013-01-01 21:34:00,
2013-01-01 14:39:00,29.7,8.9,23.18,SE,142,5.4,5.4,41,0.00,,---,0.00,VWS V14.00,2013-01-01 21:39:00,
2013-01-01 14:44:00,29.5,8.7,23.18,ESE,120,3.1,4.0,41,0.00,,---,0.00,VWS V14.00,2013-01-01 21:44:00,
2013-01-01 14:49:00,28.9,8.2,23.18,ESE,108,4.0,5.8,41,0.00,,---,0.00,VWS V14.00,2013-01-01 21:49:00,
2013-01-01 14:54:00,28.6,7.9,23.18,ENE,76,6.3,6.3,41,0.00,,---,0.00,VWS V14.00,2013-01-01 21:54:00,
2013-01-01 14:59:00,28.2,7.6,23.18,ESE,115,6.3,7.6,41,0.00,,---,0.00,VWS V14.00,2013-01-01 21:59:00,
2013-01-01 15:04:00,28.0,7.4,23.18,SE,129,3.6,4.9,41,0.00,,---,0.00,VWS V14.00,2013-01-01 22:04:00,
2013-01-01 15:09:00,27.9,7.2,23.18,SE,130,4.0,4.0,41,0.00,,---,0.00,VWS V14.00,2013-01-01 22:09:00,
2013-01-01 15:15:00,27.7,7.1,23.18,ESE,121,5.8,5.8,41,0.00,,---,0.00,VWS V14.00,2013-01-01 22:15:00,
2013-01-01 15:20:00,27.5,6.9,23.18,East,79,2.7,3.6,41,0.00,,---,0.00,VWS V14.00,2013-01-01 22:20:00,
2013-01-01 15:25:00,27.7,7.1,23.18,NNE,21,3.6,5.4,41,0.00,,---,0.00,VWS V14.00,2013-01-01 22:25:00,
2013-01-01 15:30:00,27.3,6.7,23.18,East,85,3.1,10.5,41,0.00,,---,0.00,VWS V14.00,2013-01-01 22:30:00,
2013-01-01 15:35:00,27.1,6.6,23.18,East,83,7.2,7.2,41,0.00,,---,0.00,VWS V14.00,2013-01-01 22:35:00,
2013-01-01 15:40:00,27.0,6.4,23.18,ESE,119,4.9,5.8,41,0.00,,---,0.00,VWS V14.00,2013-01-01 22:40:00,
2013-01-01 15:45:00,26.8,6.2,23.18,ENE,70,5.4,5.4,41,0.00,,---,0.00,VWS V14.00,2013-01-01 22:45:00,
2013-01-01 15:50:00,26.4,6.4,23.18,ESE,113,5.4,6.3,42,0.00,,---,0.00,VWS V14.00,2013-01-01 22:50:00,
2013-01-01 15:55:00,26.2,6.3,23.18,East,96,4.0,4.0,42,0.00,,---,0.00,VWS V14.00,2013-01-01 22:55:00,
2013-01-01 16:00:00,26.1,6.1,23.18,ESE,118,10.1,10.1,42,0.00,,---,0.00,VWS V14.00,2013-01-01 23:00:00,
2013-01-01 16:05:00,26.1,6.1,23.18,ESE,111,5.4,5.4,42,0.00,,---,0.00,VWS V14.00,2013-01-01 23:05:00,
2013-01-01 16:10:00,25.9,6.0,23.18,East,98,7.6,7.6,42,0.00,,---,0.00,VWS V14.00,2013-01-01 23:10:00,
2013-01-01 16:15:00,25.7,5.8,23.18,ESE,106,2.7,3.6,42,0.00,,---,0.00,VWS V14.00,2013-01-01 23:15:00,
2013-01-01 16:20:00,25.9,6.0,23.18,East,87,5.4,5.4,42,0.00,,---,0.00,VWS V14.00,2013-01-01 23:20:00,
2013-01-01 16:25:00,25.9,6.0,23.18,SE,134,6.3,6.3,42,0.00,,---,0.00,VWS V14.00,2013-01-01 23:25:00,
2013-01-01 16:30:00,25.5,5.6,23.18,NNE,27,5.4,6.3,42,0.00,,---,0.00,VWS V14.00,2013-01-01 23:30:00,
2013-01-01 16:35:00,25.3,5.5,23.18,ESE,108,8.7,8.7,42,0.00,,---,0.00,VWS V14.00,2013-01-01 23:35:00,
2013-01-01 16:40:00,25.0,5.1,23.18,NNW,342,4.0,8.1,42,0.00,,---,0.00,VWS V14.00,2013-01-01 23:40:00,
2013-01-01 16:45:00,24.4,4.7,23.18,East,93,8.7,8.7,42,0.00,,---,0.00,VWS V14.00,2013-01-01 23:45:00,
2013-01-01 16:50:00,24.1,4.3,23.18,East,97,6.3,6.3,42,0.00,,---,0.00,VWS V14.00,2013-01-01 23:50:00,
2013-01-01 16:55:00,23.7,4.0,23.18,ESE,118,4.9,8.7,42,0.00,,---,0.00,VWS V14.00,2013-01-01 23:55:00,
2013-01-01 17:01:00,23.5,3.8,23.18,East,86,7.6,7.6,42,0.00,,---,0.00,VWS V14.00,2013-01-02 00:01:00,
2013-01-01 17:06:00,23.0,3.8,23.18,ESE,106,6.3,6.3,43,0.00,,---,0.00,VWS V14.00,2013-01-02 00:06:00,
2013-01-01 17:11:00,22.8,3.7,23.18,SE,135,2.7,4.9,43,0.00,,---,0.00,VWS V14.00,2013-01-02 00:11:00,
2013-01-01 17:16:00,22.3,3.2,23.18,SE,132,3.1,7.6,43,0.00,,---,0.00,VWS V14.00,2013-01-02 00:16:00,
2013-01-01 17:21:00,21.9,2.9,23.18,ESE,110,3.1,5.8,43,0.00,,---,0.00,VWS V14.00,2013-01-02 00:21:00,
2013-01-01 17:26:00,21.4,2.4,23.18,SSE,151,5.8,5.8,43,0.00,,---,0.00,VWS V14.00,2013-01-02 00:26:00,
2013-01-01 17:31:00,21.0,2.0,23.18,East,85,2.2,4.0,43,0.00,,---,0.00,VWS V14.00,2013-01-02 00:31:00,
2013-01-01 17:36:00,20.7,1.7,23.18,ESE,111,3.6,4.0,43,0.00,,---,0.00,VWS V14.00,2013-01-02 00:36:00,
2013-01-01 17:41:00,20.3,1.4,23.18,ESE,102,3.6,4.0,43,0.00,,---,0.00,VWS V14.00,2013-01-02 00:41:00,
2013-01-01 17:46:00,19.9,1.1,23.21,ESE,106,2.2,2.2,43,0.00,,---,0.00,VWS V14.00,2013-01-02 00:46:00,
2013-01-01 17:51:00,19.6,0.7,23.21,ESE,122,4.0,8.3,43,0.00,,---,0.00,VWS V14.00,2013-01-02 00:51:00,
2013-01-01 17:56:00,19.4,0.6,23.21,SE,136,5.8,5.8,43,0.00,,---,0.00,VWS V14.00,2013-01-02 00:56:00,
2013-01-01 18:01:00,19.2,0.4,23.21,East,95,7.6,7.6,43,0.00,,---,0.00,VWS V14.00,2013-01-02 01:01:00,
2013-01-01 18:06:00,19.2,0.4,23.21,ENE,75,4.9,5.8,43,0.00,,---,0.00,VWS V14.00,2013-01-02 01:06:00,
2013-01-01 18:11:00,19.2,0.4,23.21,East,82,6.7,8.3,43,0.00,,---,0.00,VWS V14.00,2013-01-02 01:11:00,
2013-01-01 18:16:00,19.4,0.6,23.21,East,99,13.6,13.6,43,0.00,,---,0.00,VWS V14.00,2013-01-02 01:16:00,
2013-01-01 18:21:00,19.6,0.7,23.21,ESE,102,9.2,12.3,43,0.00,,---,0.00,VWS V14.00,2013-01-02 01:21:00,
2013-01-01 18:26:00,19.6,0.7,23.21,East,87,5.4,6.7,43,0.00,,---,0.00,VWS V14.00,2013-01-02 01:26:00,
2013-01-01 18:31:00,19.6,0.7,23.21,SE,130,6.3,7.6,43,0.00,,---,0.00,VWS V14.00,2013-01-02 01:31:00,
2013-01-01 18:37:00,19.6,0.7,23.21,East,92,3.1,7.2,43,0.00,,---,0.00,VWS V14.00,2013-01-02 01:37:00,
2013-01-01 18:42:00,19.6,0.7,23.21,ESE,111,7.6,7.6,43,0.00,,---,0.00,VWS V14.00,2013-01-02 01:42:00,
2013-01-01 18:47:00,19.4,0.6,23.21,ESE,109,7.6,8.3,43,0.00,,---,0.00,VWS V14.00,2013-01-02 01:47:00,
2013-01-01 18:52:00,19.4,0.6,23.21,East,83,8.1,8.1,43,0.00,,---,0.00,VWS V14.00,2013-01-02 01:52:00,
2013-01-01 18:57:00,19.4,0.6,23.21,ESE,106,6.3,8.1,43,0.00,,---,0.00,VWS V14.00,2013-01-02 01:57:00,
2013-01-01 19:02:00,19.2,0.4,23.21,East,91,5.4,5.4,43,0.00,,---,0.00,VWS V14.00,2013-01-02 02:02:00,
2013-01-01 19:07:00,18.9,0.1,23.21,ESE,119,5.8,5.8,43,0.00,,---,0.00,VWS V14.00,2013-01-02 02:07:00,
2013-01-01 19:12:00,18.3,-0.4,23.21,SE,124,4.0,5.4,43,0.00,,---,0.00,VWS V14.00,2013-01-02 02:12:00,
2013-01-01 19:17:00,18.0,-0.8,23.24,East,95,3.6,3.6,43,0.00,,---,0.00,VWS V14.00,2013-01-02 02:17:00,
2013-01-01 19:22:00,17.6,-0.6,23.24,East,90,4.0,4.0,44,0.00,,---,0.00,VWS V14.00,2013-01-02 02:22:00,
2013-01-01 19:27:00,17.2,-0.9,23.24,East,98,3.1,3.1,44,0.00,,---,0.00,VWS V14.00,2013-01-02 02:27:00,
2013-01-01 19:32:00,16.7,-1.4,23.24,ESE,112,3.1,4.0,44,0.00,,---,0.00,VWS V14.00,2013-01-02 02:32:00,
2013-01-01 19:37:00,16.7,-1.4,23.24,East,95,4.9,5.8,44,0.00,,---,0.00,VWS V14.00,2013-01-02 02:37:00,
2013-01-01 19:42:00,16.7,-1.4,23.24,East,96,4.0,4.0,44,0.00,,---,0.00,VWS V14.00,2013-01-02 02:42:00,
2013-01-01 19:47:00,16.7,-1.4,23.24,East,97,5.4,5.4,44,0.00,,---,0.00,VWS V14.00,2013-01-02 02:47:00,
2013-01-01 19:52:00,16.7,-1.4,23.24,East,94,3.6,5.4,44,0.00,,---,0.00,VWS V14.00,2013-01-02 02:52:00,
2013-01-01 19:57:00,16.5,-1.6,23.24,East,93,4.9,5.4,44,0.00,,---,0.00,VWS V14.00,2013-01-02 02:57:00,
2013-01-01 20:02:00,16.5,-1.6,23.24,NE,47,5.4,5.4,44,0.00,,---,0.00,VWS V14.00,2013-01-02 03:02:00,
2013-01-01 20:07:00,16.3,-1.7,23.24,East,100,3.1,3.6,44,0.00,,---,0.00,VWS V14.00,2013-01-02 03:07:00,
2013-01-01 20:12:00,16.3,-1.7,23.24,East,90,3.6,4.0,44,0.00,,---,0.00,VWS V14.00,2013-01-02 03:12:00,
2013-01-01 20:17:00,16.3,-1.7,23.24,East,93,4.0,5.4,44,0.00,,---,0.00,VWS V14.00,2013-01-02 03:17:00,
2013-01-01 20:23:00,16.2,-1.9,23.24,ESE,105,2.7,3.6,44,0.00,,---,0.00,VWS V14.00,2013-01-02 03:23:00,
2013-01-01 20:28:00,16.2,-1.9,23.24,ESE,103,4.0,4.0,44,0.00,,---,0.00,VWS V14.00,2013-01-02 03:28:00,
2013-01-01 20:33:00,16.3,-1.7,23.24,ESE,110,3.6,5.8,44,0.00,,---,0.00,VWS V14.00,2013-01-02 03:33:00,
2013-01-01 20:38:00,16.5,-1.6,23.24,SE,124,5.8,8.3,44,0.00,,---,0.00,VWS V14.00,2013-01-02 03:38:00,
2013-01-01 20:43:00,16.7,-1.4,23.24,ESE,108,3.1,5.8,44,0.00,,---,0.00,VWS V14.00,2013-01-02 03:43:00,
2013-01-01 20:48:00,16.7,-1.4,23.24,East,84,4.0,5.8,44,0.00,,---,0.00,VWS V14.00,2013-01-02 03:48:00,
2013-01-01 20:53:00,16.7,-1.4,23.24,East,96,4.0,5.4,44,0.00,,---,0.00,VWS V14.00,2013-01-02 03:53:00,
2013-01-01 20:58:00,16.9,-1.2,23.21,East,101,3.1,3.6,44,0.00,,---,0.00,VWS V14.00,2013-01-02 03:58:00,
2013-01-01 21:03:00,16.7,-1.4,23.21,East,90,2.7,2.7,44,0.00,,---,0.00,VWS V14.00,2013-01-02 04:03:00,
2013-01-01 21:08:00,16.3,-1.7,23.21,ESE,103,3.6,3.6,44,0.00,,---,0.00,VWS V14.00,2013-01-02 04:08:00,
2013-01-01 21:13:00,16.2,-1.9,23.21,ESE,102,5.4,5.4,44,0.00,,---,0.00,VWS V14.00,2013-01-02 04:13:00,
2013-01-01 21:18:00,16.2,-1.9,23.21,ESE,121,3.6,4.0,44,0.00,,---,0.00,VWS V14.00,2013-01-02 04:18:00,
2013-01-01 21:23:00,16.3,-1.7,23.21,ENE,77,4.9,7.6,44,0.00,,---,0.00,VWS V14.00,2013-01-02 04:23:00,
2013-01-01 21:28:00,16.7,-1.4,23.24,NE,56,5.4,5.4,44,0.00,,---,0.00,VWS V14.00,2013-01-02 04:28:00,
2013-01-01 21:33:00,16.7,-1.4,23.24,East,101,3.6,5.8,44,0.00,,---,0.00,VWS V14.00,2013-01-02 04:33:00,
2013-01-01 21:38:00,16.9,-1.2,23.24,ENE,70,3.1,5.4,44,0.00,,---,0.00,VWS V14.00,2013-01-02 04:38:00,
2013-01-01 21:43:00,16.9,-1.2,23.24,East,100,5.8,6.7,44,0.00,,---,0.00,VWS V14.00,2013-01-02 04:43:00,
2013-01-01 21:48:00,16.9,-1.2,23.24,ESE,106,2.7,2.7,44,0.00,,---,0.00,VWS V14.00,2013-01-02 04:48:00,
2013-01-01 21:53:00,16.5,-1.6,23.24,East,89,4.0,4.0,44,0.00,,---,0.00,VWS V14.00,2013-01-02 04:53:00,
2013-01-01 21:58:00,16.3,-1.7,23.24,ESE,123,3.6,5.4,44,0.00,,---,0.00,VWS V14.00,2013-01-02 04:58:00,
2013-01-01 22:00:00,16.3,-1.7,23.24,ESE,123,2.7,2.7,44,0.00,,---,0.00,VWS V14.00,2013-01-02 05:00:00,
2013-01-01 22:01:00,16.3,-1.7,23.24,SE,134,3.6,3.6,44,0.00,,---,0.00,VWS V14.00,2013-01-02 05:01:00,
2013-01-01 22:05:00,16.5,-1.6,23.24,ESE,118,3.1,3.1,44,0.00,,---,0.00,VWS V14.00,2013-01-02 05:05:00,
2013-01-01 22:10:00,16.5,-1.6,23.24,SE,146,7.6,7.6,44,0.00,,---,0.00,VWS V14.00,2013-01-02 05:10:00,
2013-01-01 22:15:00,16.9,-1.2,23.21,East,90,5.8,6.3,44,0.00,,---,0.00,VWS V14.00,2013-01-02 05:15:00,
2013-01-01 22:20:00,16.9,-1.2,23.21,ESE,110,4.0,5.4,44,0.00,,---,0.00,VWS V14.00,2013-01-02 05:20:00,
2013-01-01 22:25:00,16.9,-1.2,23.21,East,81,5.4,5.8,44,0.00,,---,0.00,VWS V14.00,2013-01-02 05:25:00,
2013-01-01 22:30:00,17.1,-1.1,23.21,East,79,3.6,5.4,44,0.00,,---,0.00,VWS V14.00,2013-01-02 05:30:00,
2013-01-01 22:35:00,17.1,-1.1,23.21,East,92,4.0,5.8,44,0.00,,---,0.00,VWS V14.00,2013-01-02 05:35:00,
2013-01-01 22:40:00,17.1,-1.1,23.21,ESE,118,4.0,4.0,44,0.00,,---,0.00,VWS V14.00,2013-01-02 05:40:00,
2013-01-01 22:46:00,16.9,-1.2,23.21,SE,143,3.1,6.7,44,0.00,,---,0.00,VWS V14.00,2013-01-02 05:46:00,
2013-01-01 22:51:00,16.7,-1.4,23.21,SE,143,5.8,5.8,44,0.00,,---,0.00,VWS V14.00,2013-01-02 05:51:00,
2013-01-01 22:56:00,16.7,-1.4,23.21,SE,146,5.4,5.8,44,0.00,,---,0.00,VWS V14.00,2013-01-02 05:56:00,
2013-01-01 23:01:00,16.5,-1.6,23.21,ESE,120,2.7,4.0,44,0.00,,---,0.00,VWS V14.00,2013-01-02 06:01:00,
2013-01-01 23:06:00,16.7,-1.4,23.21,SE,128,4.9,4.9,44,0.00,,---,0.00,VWS V14.00,2013-01-02 06:06:00,
2013-01-01 23:11:00,16.7,-1.4,23.21,ESE,113,3.6,5.4,44,0.00,,---,0.00,VWS V14.00,2013-01-02 06:11:00,
2013-01-01 23:16:00,16.9,-1.2,23.21,ESE,116,6.3,7.6,44,0.00,,---,0.00,VWS V14.00,2013-01-02 06:16:00,
2013-01-01 23:21:00,16.9,-1.2,23.21,East,83,6.3,6.3,44,0.00,,---,0.00,VWS V14.00,2013-01-02 06:21:00,
2013-01-01 23:26:00,16.7,-1.4,23.21,ESE,105,5.8,7.6,44,0.00,,---,0.00,VWS V14.00,2013-01-02 06:26:00,
2013-01-01 23:31:00,16.7,-1.4,23.21,SE,133,5.4,5.4,44,0.00,,---,0.00,VWS V14.00,2013-01-02 06:31:00,
2013-01-01 23:36:00,16.5,-1.6,23.21,SSE,162,2.7,5.8,44,0.00,,---,0.00,VWS V14.00,2013-01-02 06:36:00,
2013-01-01 23:41:00,16.5,-1.6,23.21,ESE,118,2.7,3.1,44,0.00,,---,0.00,VWS V14.00,2013-01-02 06:41:00,
2013-01-01 23:46:00,16.3,-1.7,23.21,ESE,107,7.6,8.3,44,0.00,,---,0.00,VWS V14.00,2013-01-02 06:46:00,
2013-01-01 23:51:00,16.3,-1.7,23.21,ESE,118,3.6,3.6,44,0.00,,---,0.00,VWS V14.00,2013-01-02 06:51:00,
2013-01-01 23:56:00,16.2,-1.9,23.21,SSE,147,4.0,5.4,44,0.00,,---,0.00,VWS V14.00,2013-01-02 06:56:00,